Location: Peterborough
(44.3091°N, 78.3197°W)
Time: 20:26:18
(UTC-04:00)

A-11 Canister half - Pass Details

Date: 23 March 2023
Orbit: 1526 x 1682 km, 47.3° (Epoch: 06 June)

Event Time Altitude Azimuth Distance (km) Brightness Sun altitude
Rises 23:26:02 0° 293° (WNW) 4,840 12.3 -37.8°
Reaches altitude 10° 23:29:13 10° 291° (WNW) 3,831 11.6 -38.2°
Enters shadow 23:37:12 59° 255° (WSW) 1,787 9.2 -39.0°
